GW1995 Weather Reports


Display with metric or nautical units.
time (UTC)temp
F
wind
direction
speed
MPH
gust
MPH
rain 1hr
in
rain 24hr
in
rain mn
in
humidity
%
barometer
mb
20260510115832 40 257 0.0 0.0 0.00 0.00 0.00 73 1018.4
20260510115329 39 257 0.0 0.0 0.00 0.00 0.00 73 1018.5
20260510114825 39 257 0.0 0.0 0.00 0.00 0.00 73 1018.2
20260510114323 39 256 0.0 0.0 0.00 0.00 0.00 73 1018.0
20260510113817 38 256 0.0 0.0 0.00 0.00 0.00 73 1017.9
20260510113314 38 256 0.0 1.0 0.00 0.00 0.00 73 1018.1
20260510112811 38 256 0.0 0.0 0.00 0.00 0.00 73 1017.9
20260510112308 38 262 0.0 1.0 0.00 0.00 0.00 73 1017.8
20260510111804 38 218 0.0 0.0 0.00 0.00 0.00 73 1017.8
20260510111301 37 218 0.0 1.0 0.00 0.00 0.00 74 1017.7
20260510110800 37 218 0.0 0.0 0.00 0.00 0.00 74 1017.6
20260510110258 37 217 0.0 2.0 0.00 0.00 0.00 74 1017.5
20260510105758 37 213 1.0 2.0 0.00 0.00 0.00 75 1017.3
20260510105253 37 216 0.0 1.0 0.00 0.00 0.00 76 1017.6
20260510104750 37 216 1.0 1.0 0.00 0.00 0.00 76 1017.5
20260510104248 36 216 1.0 1.0 0.00 0.00 0.00 76 1017.3
20260510103744 36 216 1.0 1.0 0.00 0.00 0.00 76 1017.6
20260510103241 37 216 1.0 1.0 0.00 0.00 0.00 75 1017.3
20260510102740 37 216 0.0 0.0 0.00 0.00 0.00 75 1017.2
20260510102236 37 216 0.0 0.0 0.00 0.00 0.00 74 1017.2
20260510101734 37 216 0.0 0.0 0.00 0.00 0.00 74 1017.2
20260510101233 37 216 0.0 0.0 0.00 0.00 0.00 74 1016.9
20260510100728 37 215 1.0 1.0 0.00 0.00 0.00 73 1016.8
20260510100226 37 216 0.0 1.0 0.00 0.00 0.00 73 1016.8
20260510095721 37 216 0.0 0.0 0.00 0.00 0.00 74 1016.7
20260510095217 37 216 0.0 0.0 0.00 0.00 0.00 73 1016.6
20260510094715 37 215 0.0 0.0 0.00 0.00 0.00 72 1016.5
20260510094211 37 215 0.0 0.0 0.00 0.00 0.00 72 1016.6
20260510093707 38 215 0.0 0.0 0.00 0.00 0.00 72 1016.4
20260510093205 38 215 0.0 0.0 0.00 0.00 0.00 72 1016.2
20260510092701 38 215 1.0 1.0 0.00 0.00 0.00 72 1016.2
20260510092157 38 215 0.0 0.0 0.00 0.00 0.00 72 1016.3
20260510091652 38 215 0.0 1.0 0.00 0.00 0.00 71 1016.2
20260510091149 38 215 0.0 0.0 0.00 0.00 0.00 71 1016.2
20260510090646 38 215 0.0 1.0 0.00 0.00 0.00 71 1016.0
20260510090143 38 215 0.0 1.0 0.00 0.00 0.00 70 1016.1
20260510085638 38 215 0.0 0.0 0.00 0.00 0.00 70 1016.1
20260510085133 38 215 0.0 1.0 0.00 0.00 0.00 70 1016.0
20260510084630 39 215 1.0 1.0 0.00 0.00 0.00 69 1016.0
20260510084126 39 215 1.0 1.0 0.00 0.00 0.00 69 1015.9
20260510083623 39 215 1.0 2.0 0.00 0.00 0.00 68 1015.7
20260510083119 39 216 1.0 1.0 0.00 0.00 0.00 66 1015.7
20260510082610 39 216 1.0 1.0 0.00 0.00 0.00 66 1015.7
20260510082105 40 217 0.0 1.0 0.00 0.00 0.00 66 1015.7
20260510081601 40 218 0.0 1.0 0.00 0.00 0.00 66 1015.5
20260510081057 40 217 1.0 1.0 0.00 0.00 0.00 66 1015.7
20260510080556 40 217 0.0 1.0 0.00 0.00 0.00 66 1015.6
20260510080053 40 217 1.0 1.0 0.00 0.00 0.00 65 1015.2
20260510075550 41 219 1.0 1.0 0.00 0.00 0.00 64 1015.5
20260510075047 41 219 1.0 1.0 0.00 0.00 0.00 63 1015.5
20260510074545 41 219 1.0 1.0 0.00 0.00 0.00 63 1015.4
20260510074039 41 220 0.0 0.0 0.00 0.00 0.00 63 1015.4
20260510073536 41 220 0.0 0.0 0.00 0.00 0.00 64 1015.4
20260510073034 42 219 1.0 1.0 0.00 0.00 0.00 63 1015.4
20260510072530 42 219 1.0 1.0 0.00 0.00 0.00 61 1015.3
20260510072025 42 220 1.0 1.0 0.00 0.00 0.00 60 1015.4
20260510071522 42 220 1.0 1.0 0.00 0.00 0.00 60 1015.3
20260510071020 43 222 0.0 1.0 0.00 0.00 0.00 59 1015.3
20260510070517 43 241 1.0 1.0 0.00 0.00 0.00 58 1015.3
20260510070013 43 241 1.0 1.0 0.00 0.00 0.00 59 1015.2
20260510065510 43 257 1.0 1.0 0.00 0.00 0.00 58 1015.3
20260510065006 44 272 0.0 1.0 0.00 0.00 0.00 57 1015.4
20260510064503 44 272 0.0 0.0 0.00 0.00 0.00 54 1015.3
20260510064000 44 273 0.0 0.0 0.00 0.00 0.00 54 1015.1
20260510063456 44 272 0.0 0.0 0.00 0.00 0.00 55 1015.3
20260510062954 44 272 0.0 0.0 0.00 0.00 0.00 54 1015.2
20260510062449 45 273 0.0 0.0 0.00 0.00 0.00 54 1015.2
20260510061944 45 273 0.0 0.0 0.00 0.00 0.00 51 1015.1
20260510061441 45 273 0.0 0.0 0.00 0.00 0.00 51 1015.3
20260510060937 46 273 0.0 0.0 0.00 0.00 0.00 51 1015.3
20260510060435 46 273 0.0 0.0 0.00 0.00 0.00 51 1015.3
20260510055930 46 273 0.0 0.0 0.00 0.00 0.00 51 1015.1
20260510055426 46 273 0.0 0.0 0.00 0.00 0.00 51 1015.2
20260510054919 46 273 0.0 0.0 0.00 0.00 0.00 52 1015.2
20260510054414 47 273 0.0 0.0 0.00 0.00 0.00 51 1015.0
20260510053909 47 273 0.0 0.0 0.00 0.00 0.00 51 1015.1
20260510053405 48 273 0.0 0.0 0.00 0.00 0.00 49 1014.9
20260510052902 48 273 0.0 0.0 0.00 0.00 0.00 49 1014.6
20260510052357 48 273 0.0 1.0 0.00 0.00 0.00 49 1014.8
20260510051854 49 273 1.0 1.0 0.00 0.00 0.00 48 1014.9
20260510051350 49 274 0.0 1.0 0.00 0.00 0.00 47 1015.0
20260510050847 50 274 0.0 1.0 0.00 0.00 0.00 46 1014.9
20260510050344 50 276 0.0 1.0 0.00 0.00 0.00 44 1015.0
20260510045841 50 263 1.0 1.0 0.00 0.00 0.00 44 1014.8
20260510045338 50 292 1.0 2.0 0.00 0.00 0.00 43 1014.8
20260510044835 50 299 2.0 3.0 0.00 0.00 0.00 43 1014.8
20260510044332 50 279 3.0 5.0 0.00 0.00 0.00 43 1014.7
20260510043828 50 277 1.0 2.0 0.00 0.00 0.00 44 1014.7
20260510043324 50 286 1.0 2.0 0.00 0.00 0.00 45 1014.5
20260510042822 50 271 0.0 2.0 0.00 0.00 0.00 45 1014.5
20260510042318 50 280 0.0 1.0 0.00 0.00 0.00 46 1014.6
20260510041814 50 280 0.0 0.0 0.00 0.00 0.00 46 1014.6
20260510041312 50 280 0.0 1.0 0.00 0.00 0.00 45 1014.4
20260510040809 51 280 0.0 1.0 0.00 0.00 0.00 44 1014.4
20260510040305 51 280 0.0 0.0 0.00 0.00 0.00 43 1014.0
20260510035801 51 281 1.0 1.0 0.00 0.00 0.00 43 1014.2
20260510035257 51 281 1.0 1.0 0.00 0.00 0.00 43 1014.1
20260510034753 51 281 0.0 1.0 0.00 0.00 0.00 43 1014.1
20260510034251 51 280 0.0 0.0 0.00 0.00 0.00 43 1014.0
20260510033747 51 281 0.0 1.0 0.00 0.00 0.00 42 1014.0
20260510033244 52 280 0.0 0.0 0.00 0.00 0.00 41 1014.1
20260510032740 52 280 0.0 1.0 0.00 0.00 0.00 41 1014.0
20260510032237 53 280 0.0 1.0 0.00 0.00 0.00 40 1013.9
20260510031732 53 280 0.0 1.0 0.00 0.00 0.00 40 1013.9
20260510031228 53 282 1.0 1.0 0.00 0.00 0.00 39 1013.8
20260510030727 53 273 0.0 1.0 0.00 0.00 0.00 38 1013.8
20260510030225 54 277 0.0 1.0 0.00 0.00 0.00 38 1013.4
20260510025722 54 281 0.0 1.0 0.00 0.00 0.00 37 1013.3
20260510025214 54 268 1.0 2.0 0.00 0.00 0.00 37 1013.2
20260510024711 54 270 0.0 1.0 0.00 0.00 0.00 38 1013.3
20260510024207 54 290 0.0 2.0 0.00 0.00 0.00 36 1013.0
20260510023703 54 311 1.0 2.0 0.00 0.00 0.00 35 1012.9
20260510023200 54 284 2.0 3.0 0.00 0.00 0.00 35 1012.6
20260510022656 54 280 1.0 2.0 0.00 0.00 0.00 35 1012.5
20260510022150 54 276 1.0 2.0 0.00 0.00 0.00 35 1012.5
20260510021645 54 258 0.0 1.0 0.00 0.00 0.00 36 1012.3
20260510021138 54 303 2.0 5.0 0.00 0.00 0.00 36 1012.2
20260510020632 54 279 0.0 1.0 0.00 0.00 0.00 36 1012.3
20260510020127 54 290 1.0 2.0 0.00 0.00 0.00 36 1012.1
20260510015624 54 279 1.0 1.0 0.00 0.00 0.00 36 1012.0
20260510015120 54 276 0.0 1.0 0.00 0.00 0.00 36 1011.9
20260510014615 55 283 1.0 3.0 0.00 0.00 0.00 35 1011.7
20260510014113 55 279 1.0 1.0 0.00 0.00 0.00 34 1011.8
20260510013608 55 296 1.0 2.0 0.00 0.00 0.00 34 1011.5
20260510013104 56 279 1.0 2.0 0.00 0.00 0.00 33 1011.6
20260510012603 56 268 0.0 1.0 0.00 0.00 0.00 33 1011.4
20260510012100 56 282 0.0 2.0 0.00 0.00 0.00 32 1011.3
20260510011559 56 287 1.0 2.0 0.00 0.00 0.00 32 1011.3
20260510011055 57 283 1.0 3.0 0.00 0.00 0.00 31 1011.1
20260510010552 57 249 1.0 6.0 0.00 0.00 0.00 30 1011.1
20260510010049 57 317 3.0 7.0 0.00 0.00 0.00 30 1011.2
20260510005544 57 293 5.0 6.0 0.00 0.00 0.00 31 1011.0
20260510005042 57 306 4.0 8.0 0.00 0.00 0.00 30 1010.8
20260510004540 58 298 5.0 8.0 0.00 0.00 0.00 30 1011.0
20260510004038 58 330 3.0 6.0 0.00 0.00 0.00 30 1010.9
20260510003534 58 290 4.0 6.0 0.00 0.00 0.00 29 1010.9
20260510003030 58 308 2.0 6.0 0.00 0.00 0.00 29 1010.8
20260510002525 58 277 4.0 14.0 0.00 0.00 0.00 30 1010.6
20260510002023 58 269 2.0 5.0 0.00 0.00 0.00 30 1010.6
20260510001520 59 331 5.0 7.0 0.00 0.00 0.00 31 1010.6
20260510001018 59 271 1.0 5.0 0.00 0.00 0.00 32 1010.4
20260510000513 59 61 4.0 5.0 0.00 0.00 0.00 31 1010.4
20260510000010 59 15 2.0 3.0 0.00 0.00 0.00 31 1010.4
20260509235507 59 305 7.0 10.0 0.00 0.00 0.00 30 1010.3
20260509235003 59 358 2.0 6.0 0.00 0.00 0.00 31 1010.4
20260509234500 59 273 5.0 8.0 0.00 0.00 0.00 30 1010.3
20260509233958 59 1 3.0 3.0 0.00 0.00 0.00 30 1010.3
20260509233455 59 18 5.0 7.0 0.00 0.00 0.00 30 1010.3
20260509232950 59 35 4.0 6.0 0.00 0.00 0.00 29 1010.1
20260509232449 60 292 8.0 11.0 0.00 0.00 0.00 28 1010.2
20260509231944 59 28 5.0 9.0 0.00 0.00 0.00 28 1010.3
20260509231441 60 327 3.0 7.0 0.00 0.00 0.00 28 1010.1
20260509230939 59 302 1.0 8.0 0.00 0.00 0.00 28 1010.0
20260509230436 60 282 8.0 15.0 0.00 0.00 0.00 28 1010.0
20260509225932 60 14 6.0 9.0 0.00 0.00 0.00 27 1009.9
20260509225428 60 316 4.0 11.0 0.00 0.00 0.00 28 1010.0
20260509224925 60 315 4.0 8.0 0.00 0.00 0.00 27 1009.9
20260509224420 60 275 3.0 8.0 0.00 0.00 0.00 28 1009.5
20260509223917 60 329 3.0 9.0 0.00 0.00 0.00 27 1009.6
20260509223414 61 267 5.0 6.0 0.00 0.00 0.00 25 1009.4
20260509222911 60 299 6.0 13.0 0.00 0.00 0.00 27 1009.5
20260509222406 60 302 7.0 16.0 0.00 0.00 0.00 26 1009.3
20260509221902 61 293 3.0 7.0 0.00 0.00 0.00 26 1009.6
20260509221400 61 35 7.0 9.0 0.00 0.00 0.00 26 1009.4
20260509220855 61 313 6.0 8.0 0.00 0.00 0.00 26 1009.6
20260509220351 61 289 3.0 7.0 0.00 0.00 0.00 26 1009.2
20260509215847 60 268 3.0 8.0 0.00 0.00 0.00 26 1009.2
20260509215344 60 283 3.0 11.0 0.00 0.00 0.00 26 1009.4
20260509214841 61 250 5.0 13.0 0.00 0.00 0.00 26 1009.2
20260509214338 60 13 5.0 7.0 0.00 0.00 0.00 27 1009.2
20260509213835 60 324 5.0 7.0 0.00 0.00 0.00 27 1009.3
20260509213330 61 309 8.0 13.0 0.00 0.00 0.00 27 1009.4
20260509212828 61 274 3.0 8.0 0.00 0.00 0.00 27 1009.1
20260509212326 61 287 4.0 9.0 0.00 0.00 0.00 26 1009.2
20260509211821 61 314 4.0 15.0 0.00 0.00 0.00 27 1009.1
20260509211317 60 274 2.0 9.0 0.00 0.00 0.00 28 1009.1
20260509210814 61 316 6.0 7.0 0.00 0.00 0.00 27 1009.0
20260509210312 61 231 5.0 10.0 0.00 0.00 0.00 28 1009.0
20260509205811 60 159 3.0 7.0 0.00 0.00 0.00 27 1008.8
20260509205307 61 287 3.0 9.0 0.00 0.00 0.00 27 1008.9
20260509204803 61 260 3.0 8.0 0.00 0.00 0.00 27 1008.8
20260509204259 61 295 3.0 3.0 0.00 0.00 0.00 29 1008.8
20260509203755 60 251 3.0 7.0 0.00 0.00 0.00 29 1008.8
20260509203253 60 358 7.0 10.0 0.00 0.00 0.00 29 1008.6
20260509202748 61 324 3.0 9.0 0.00 0.00 0.00 29 1008.7
20260509202244 61 262 6.0 7.0 0.00 0.00 0.00 29 1008.8
20260509201738 60 307 2.0 8.0 0.00 0.00 0.00 30 1008.8
20260509201235 61 4 3.0 5.0 0.00 0.00 0.00 30 1008.5
20260509200731 60 295 5.0 9.0 0.00 0.00 0.00 29 1008.7
20260509200227 60 297 5.0 9.0 0.00 0.00 0.00 29 1008.7
20260509195723 60 279 4.0 7.0 0.00 0.00 0.00 30 1008.6
20260509195218 61 294 5.0 8.0 0.00 0.00 0.00 28 1008.7
20260509194713 59 317 4.0 9.0 0.00 0.00 0.00 30 1008.4
20260509194210 59 304 4.0 6.0 0.00 0.00 0.00 31 1008.5
20260509193706 59 341 4.0 8.0 0.00 0.00 0.00 31 1008.7
20260509193201 60 261 3.0 10.0 0.00 0.00 0.00 31 1008.5
20260509192657 60 233 3.0 6.0 0.00 0.00 0.00 31 1008.4
20260509192153 59 285 4.0 7.0 0.00 0.00 0.00 31 1008.3
20260509191648 59 349 4.0 7.0 0.00 0.00 0.00 30 1008.2
20260509191145 60 241 6.0 9.0 0.00 0.00 0.00 32 1008.3
20260509190641 60 265 4.0 8.0 0.00 0.00 0.00 32 1008.2
20260509190138 60 284 3.0 10.0 0.00 0.00 0.00 33 1008.1
20260509185636 59 331 3.0 8.0 0.00 0.00 0.00 36 1008.0
20260509185132 59 277 3.0 10.0 0.00 0.00 0.00 35 1008.1
20260509184630 59 1 6.0 7.0 0.00 0.00 0.00 36 1008.0
20260509184126 59 303 6.0 10.0 0.00 0.00 0.00 35 1008.0
20260509183623 59 27 8.0 10.0 0.00 0.00 0.00 34 1008.1
20260509183118 58 257 1.0 10.0 0.00 0.00 0.00 35 1008.0
20260509182614 60 355 8.0 14.0 0.00 0.00 0.00 35 1007.7
20260509182111 59 261 3.0 6.0 0.00 0.00 0.00 36 1007.6
20260509181609 59 285 3.0 10.0 0.00 0.00 0.00 37 1007.6
20260509181106 58 331 9.0 11.0 0.00 0.00 0.00 38 1007.6
20260509180603 59 305 8.0 10.0 0.00 0.00 0.00 37 1007.5
20260509180100 58 294 3.0 10.0 0.00 0.00 0.00 38 1007.4
20260509175555 58 3 4.0 9.0 0.00 0.00 0.00 37 1007.5
20260509175052 60 270 7.0 9.0 0.00 0.00 0.00 36 1007.5
20260509174548 59 303 7.0 8.0 0.00 0.00 0.00 37 1007.4
20260509174043 59 330 4.0 10.0 0.00 0.00 0.00 38 1007.3
20260509173538 58 325 4.0 11.0 0.00 0.00 0.00 38 1007.4
20260509173035 58 1 8.0 15.0 0.00 0.00 0.00 39 1007.3
20260509172532 58 27 5.0 10.0 0.00 0.00 0.00 38 1007.2
20260509172028 58 320 4.0 11.0 0.00 0.00 0.00 38 1007.5
20260509171524 58 283 5.0 10.0 0.00 0.00 0.00 39 1007.1
20260509171021 58 43 5.0 9.0 0.00 0.00 0.00 38 1007.2
20260509170516 58 276 7.0 8.0 0.00 0.00 0.00 38 1007.2
20260509170012 58 302 7.0 9.0 0.00 0.00 0.00 38 1007.0
20260509165511 58 359 5.0 9.0 0.00 0.00 0.00 37 1007.1
20260509165007 58 14 7.0 11.0 0.00 0.00 0.00 37 1007.2
20260509164503 58 309 7.0 10.0 0.00 0.00 0.00 37 1007.2
20260509163958 58 315 8.0 9.0 0.00 0.00 0.00 36 1006.9
20260509163456 58 234 3.0 6.0 0.00 0.00 0.00 40 1006.9
20260509162955 57 28 3.0 8.0 0.00 0.00 0.00 41 1006.8
20260509162454 57 296 4.0 9.0 0.00 0.00 0.00 40 1006.6
20260509161950 57 339 4.0 9.0 0.00 0.00 0.00 41 1006.5
20260509161446 57 334 5.0 13.0 0.00 0.00 0.00 41 1006.6
20260509160942 57 348 4.0 11.0 0.00 0.00 0.00 41 1006.6
20260509160438 57 354 5.0 9.0 0.00 0.00 0.00 40 1006.6
20260509155933 57 288 7.0 8.0 0.00 0.00 0.00 41 1006.6
20260509155430 57 325 8.0 10.0 0.00 0.00 0.00 43 1006.5
20260509154927 56 320 5.0 11.0 0.00 0.00 0.00 46 1006.6
20260509154423 56 324 4.0 8.0 0.00 0.00 0.00 46 1006.6
20260509153920 56 272 4.0 7.0 0.00 0.00 0.00 46 1006.4
20260509153417 55 316 7.0 13.0 0.00 0.00 0.00 47 1006.3
20260509152914 55 306 3.0 7.0 0.00 0.00 0.00 48 1006.4
20260509152409 55 317 7.0 9.0 0.00 0.00 0.00 48 1006.5
20260509151907 55 262 3.0 8.0 0.00 0.00 0.00 48 1006.3
20260509151403 56 237 3.0 6.0 0.00 0.00 0.00 52 1006.2
20260509150901 55 3 5.0 10.0 0.00 0.00 0.00 54 1006.3
20260509150358 54 0 5.0 9.0 0.00 0.00 0.00 55 1005.9
20260509145856 54 165 4.0 8.0 0.00 0.00 0.00 56 1006.0
20260509145350 53 11 4.0 9.0 0.00 0.00 0.00 57 1006.0
20260509144847 54 273 4.0 9.0 0.00 0.00 0.00 58 1005.8
20260509144344 54 256 4.0 10.0 0.00 0.00 0.00 57 1005.8
20260509143841 54 304 5.0 9.0 0.00 0.00 0.00 58 1005.6
20260509143338 53 301 2.0 5.0 0.00 0.00 0.00 63 1005.5
20260509142834 53 116 3.0 6.0 0.00 0.00 0.00 62 1005.5
20260509142331 53 269 3.0 6.0 0.00 0.00 0.00 65 1005.6
20260509141827 53 129 2.0 7.0 0.00 0.00 0.00 66 1005.6
20260509141328 52 311 2.0 7.0 0.00 0.00 0.00 66 1005.3
20260509140820 52 318 2.0 6.0 0.00 0.00 0.00 67 1005.1
20260509140317 53 316 5.0 7.0 0.00 0.00 0.00 67 1005.2
20260509135816 54 6 6.0 8.0 0.00 0.00 0.00 65 1005.2
20260509135312 53 55 2.0 7.0 0.00 0.00 0.00 66 1005.0
20260509134810 53 319 6.0 9.0 0.00 0.00 0.00 67 1005.2
20260509134307 52 333 5.0 9.0 0.00 0.00 0.00 68 1004.9
20260509133804 52 346 4.0 7.0 0.00 0.00 0.00 68 1005.0
20260509133300 53 299 7.0 11.0 0.00 0.00 0.00 69 1004.9
20260509132759 53 321 5.0 9.0 0.00 0.00 0.00 70 1004.7
20260509132258 52 306 4.0 6.0 0.00 0.00 0.00 70 1004.6
20260509131754 52 345 5.0 7.0 0.00 0.00 0.00 70 1004.5
20260509131250 52 323 3.0 7.0 0.00 0.00 0.00 72 1004.4
20260509130747 53 302 7.0 9.0 0.00 0.00 0.00 73 1004.4
20260509130242 52 284 1.0 8.0 0.00 0.00 0.00 74 1004.2
20260509125739 52 275 1.0 7.0 0.00 0.00 0.00 73 1004.3
20260509125236 52 315 8.0 9.0 0.00 0.00 0.00 73 1004.1
20260509124732 52 316 3.0 8.0 0.00 0.00 0.00 73 1004.1
20260509124229 52 285 5.0 11.0 0.00 0.00 0.00 73 1004.1
20260509123727 52 304 3.0 7.0 0.00 0.00 0.00 75 1004.0
20260509123224 52 316 2.0 6.0 0.00 0.00 0.00 74 1003.8
20260509122720 53 337 2.0 3.0 0.00 0.00 0.00 73 1003.7
20260509122217 53 26 3.0 5.0 0.00 0.00 0.00 73 1003.6
20260509121714 53 278 4.0 7.0 0.00 0.00 0.00 72 1003.5
20260509121211 52 326 3.0 6.0 0.00 0.00 0.00 71 1003.4
20260509120709 52 272 1.0 5.0 0.00 0.00 0.00 71 1003.5